[[{"header":{"parameterUnit":"m.s-1","parameterCategory":1,"la1":30.2991,"la2":30.254,"lo1":-89.0895,"lo2":-89.0444,"dy":0.0017,"dx":0.0017,"nx":28,"ny":28,"refTime":"2024-10-02T21:00:00:Z","depth":0,"parameterNumber":2,"parameterNumberName":"U-component_of_WINDS"},"data":[0,0,0,0,0,0,0,0,0,0,0,0,0,0,0,0,0,0,0,0,0,0,0,0,0,0,0,0,0,0,0,0,0,0,0,0,0,0,0,0,0,0,0,0,0,0,0,0,0,0,0,0,0,0,0,0,0,0,-5.1689,-5.1691,0,-5.1806,-5.1807,-5.1809,-5.1708,-5.1704,-5.17,-5.1696,-5.1817,-5.1824,-5.1831,0,0,0,0,0,0,0,0,0,0,0,0,0,-5.1383,-5.1389,-5.1689,-5.1691,-5.1692,-5.1806,-5.1807,-5.1809,-5.1709,-5.1704,-5.1699,-5.1694,-5.1815,-5.1823,-5.1831,0,0,0,0,0,0,0,0,0,0,0,0,0,-5.1509,-5.1391,-5.1689,-5.1656,-5.1654,-5.1805,-5.1807,-5.1809,-5.171,-5.1704,-5.1698,-5.1692,-5.1812,-5.1822,-5.1833,-5.2023,0,0,-5.1865,-5.187,0,0,0,0,0,0,0,0,-5.1502,-5.1521,-5.1659,-5.1659,-5.1657,-5.1736,-5.1743,-5.1881,-5.1712,-5.1689,-5.1696,-5.1689,-5.1795,-5.1807,-5.1842,-5.2029,-5.2034,-5.1866,-5.1872,-5.1877,-5.188,0,0,0,0,0,0,0,-5.1494,-5.1515,-5.1735,-5.1662,-5.166,-5.1636,-5.1647,-5.1769,-5.1776,-5.169,-5.1683,-5.1699,-5.1793,-5.1832,-5.1844,-5.2035,-5.1866,-5.1875,-5.1882,-5.1886,-5.2385,-5.2392,0,0,0,0,0,0,-5.1488,-5.1508,-5.1732,-5.1739,-5.1563,-5.1647,-5.1659,-5.1717,-5.1774,-5.1777,-5.1704,-5.1693,-5.1817,-5.1832,-5.1848,-5.2075,-5.1877,-5.1887,-5.1893,-5.2378,-5.2387,-5.2394,0,0,0,0,0,0,-5.1482,-5.1509,-5.1727,-5.1622,-5.1648,-5.1659,-5.1724,-5.1723,-5.1761,-5.1784,-5.1785,-5.1742,-5.1813,-5.1833,-5.198,-5.2078,-5.1892,-5.1901,-5.237,-5.2381,-5.239,-5.2531,0,0,0,0,0,0,-5.1473,-5.1507,-5.1579,-5.1624,-5.1654,-5.1857,-5.173,-5.1729,-5.178,-5.1768,-5.182,-5.1823,-5.181,-5.1965,-5.1991,-5.2089,-5.191,-5.2361,-5.2375,-5.2387,-5.2517,-5.2544,-5.2568,0,0,0,0,0,-5.1463,-5.1614,-5.1583,-5.161,-5.1744,-5.1863,-5.188,-5.186,-5.1788,-5.1861,-5.1876,-5.1822,-5.2064,-5.1981,-5.2009,-5.2112,-5.2355,-5.2371,-5.2386,-5.2506,-5.2539,-5.2567,0,0,0,0,0,0,-5.1579,-5.1619,-5.1585,-5.1755,-5.1807,-5.1845,-5.1936,-5.1896,-5.1969,-5.1954,-5.1928,-5.1941,-5.2096,-5.2119,-5.2026,-5.23,-5.2198,-5.222,-5.2279,-5.2311,-5.2336,-5.2327,-5.1918,0,0,0,0,0,-5.1625,-5.1718,-5.1747,-5.1895,-5.1922,-5.1925,-5.1976,-5.1957,-5.2009,-5.203,-5.2056,-5.2109,-5.2197,-5.2255,-5.2337,-5.2521,-5.2531,-5.2606,-5.2631,-5.2651,-5.267,-5.277,-5.2804,-5.2445,-5.2445,-5.2445,0,0,-5.172,-5.1753,-5.1813,-5.1919,-5.1956,-5.2054,-5.1944,-5.2051,-5.2124,-5.2047,-5.2187,-5.2208,-5.2266,-5.2432,-5.2507,-5.2456,-5.2772,-5.2671,-5.2687,-5.2695,-5.2789,-5.2823,-5.2854,-5.2455,-5.2454,-5.2452,0,0,-5.1942,-5.1977,-5.2103,-5.2143,-5.2201,-5.2203,-5.2234,-5.228,-5.229,-5.2431,-5.2376,-5.2462,-5.2614,-5.2657,-5.2699,-5.2941,-5.2895,-5.2969,-5.31,-5.3198,-5.3226,-5.3251,-5.3338,-5.3369,-5.2988,-5.2989,-5.2989,0,-5.2053,-5.2196,-5.2174,-5.2286,-5.2334,-5.227,-5.2399,-5.2439,-5.2521,-5.2557,-5.2499,-5.2689,-5.2723,-5.2899,-5.2959,-5.2995,-5.303,-5.2962,-5.3224,-5.3249,-5.3271,-5.3354,-5.3386,-5.2997,-5.2996,-5.2995,-5.2994,0,-5.233,-5.2431,-5.2526,-5.2608,-5.2667,-5.2787,-5.2783,-5.2847,-5.2824,-5.2832,-5.2977,-5.3016,-5.3105,-5.3146,-5.3124,-5.332,-5.3286,-5.3227,-5.3123,-5.3315,-5.3391,-5.3423,-5.301,-5.3006,-5.3004,-5.3002,0,0,-5.2627,-5.2695,-5.2731,-5.2767,-5.2828,-5.2906,-5.3024,-5.3111,-5.3166,-5.3226,-5.3325,-5.3456,-5.3402,-5.345,-5.3433,-5.3518,-5.3708,-5.3448,-5.3449,-5.3495,-5.3927,-5.3971,-5.4008,-5.3678,-5.3684,-5.3689,-5.3922,0,-5.2851,-5.3055,-5.304,-5.3233,-5.3326,-5.3268,-5.3371,-5.342,-5.3431,-5.3513,-5.3525,-5.3619,-5.354,-5.3569,-5.3651,-5.3668,-5.3795,-5.3651,-5.377,-5.3775,-5.3757,-5.4048,-5.4094,-5.4312,-5.3952,-5.3957,-5.3961,0,-5.314,-5.321,-5.3413,-5.3461,-5.3499,-5.3592,-5.3672,-5.3751,-5.3806,-5.3808,-5.3863,-5.3832,-5.3952,-5.3847,-5.4012,-5.3915,-5.3963,-5.3979,-5.3987,-5.3997,-5.3879,-5.4065,-5.4381,-5.4414,-5.4008,-5.4004,-5.4001,0,-5.3336,-5.3482,-5.3622,-5.3655,-5.3715,-5.3781,-5.3809,-5.3858,-5.3912,-5.3982,-5.4017,-5.4101,-5.4147,-5.4213,-5.4206,-5.413,-5.4374,-5.4268,-5.438,-5.4381,-5.4433,-5.443,-5.4761,-5.4466,-5.4465,-5.4465,-5.4464,0,-5.3588,-5.3715,-5.3711,-5.3797,-5.3938,-5.3919,-5.4059,-5.4079,-5.4124,-5.4214,-5.4169,-5.4254,-5.424,-5.4326,-5.4321,-5.446,-5.4481,-5.4486,-5.4484,-5.449,-5.4489,-5.4521,-5.4505,-5.4473,-5.4471,-5.447,-5.4468,0,-5.3831,-5.3833,-5.3982,-5.4027,-5.4041,-5.4143,-5.4181,-5.4263,-5.4272,-5.4386,-5.4412,-5.4426,-5.4525,-5.4525,-5.4638,-5.4635,-5.4804,-5.4784,-5.4785,-5.4781,-5.4893,-5.4882,-5.5255,-5.5304,-5.4977,-5.4981,-5.4983,0,-5.3991,-5.4087,-5.4142,-5.4199,-5.4231,-5.4324,-5.4379,-5.4365,-5.4425,-5.4496,-5.457,-5.4665,-5.474,-5.4902,-5.4922,-5.5009,-5.499,-5.5115,-5.5003,-5.5007,-5.4992,-5.4986,-5.4996,-5.5137,-5.514,-5.5143,-5.5146,0,-5.4275,-5.4272,-5.4353,-5.4436,-5.4503,-5.4568,-5.4627,-5.4677,-5.467,-5.4739,-5.484,-5.4899,-5.5015,-5.511,-5.5194,-5.5224,-5.5185,-5.5181,-5.5212,-5.5219,-5.5215,-5.5219,-5.4845,-5.5172,-5.517,-5.5168,-5.5166,-5.5165,-5.448,-5.4563,-5.4616,-5.4708,-5.4752,-5.4809,-5.4889,-5.4908,-5.4991,-5.5085,-5.5072,-5.5185,-5.5239,-5.5348,-5.5385,-5.5474,-5.543,-5.5474,-5.5485,-5.5496,-5.5509,-5.5202,-5.5489,-5.5489,-5.5488,-5.5487,-5.5487,0,-5.4762,-5.4793,-5.4879,-5.4964,-5.5037,-5.4994,-5.5058,-5.5123,-5.5222,-5.5276,-5.5352,-5.5469,-5.5561,-5.559,-5.568,-5.5745,-5.573,-5.5769,-5.5764,-5.5772,-5.5543,-5.5507,-5.5781,-5.5781,-5.5781,-5.578,-5.578,-5.578,-5.4917,-5.5055,-5.5059,-5.5219,-5.5249,-5.536,-5.54,-5.5453,-5.5496,-5.5629,-5.5705,-5.5723,-5.5768,-5.5861,-5.5945,-5.5951,-5.5986,-5.6033,-5.6032,-5.5817,-5.5788,-5.5759,-5.5726,-5.6041,-5.6041,-5.6253,-5.6255,-5.6257]},{"header":{"parameterUnit":"m.s-1","parameterCategory":1,"la1":30.2991,"la2":30.254,"lo1":-89.0895,"lo2":-89.0444,"dy":0.0017,"dx":0.0017,"nx":28,"ny":28,"refTime":"2024-10-02T21:00:00:Z","depth":0,"parameterNumber":3,"parameterNumberName":"V-component_of_WINDS"},"data":[0,0,0,0,0,0,0,0,0,0,0,0,0,0,0,0,0,0,0,0,0,0,0,0,0,0,0,0,0,0,0,0,0,0,0,0,0,0,0,0,0,0,0,0,0,0,0,0,0,0,0,0,0,0,0,0,0,0,0.4624,0.4624,0,0.4665,0.4665,0.4666,0.4713,0.4714,0.4715,0.4716,0.4755,0.4755,0.4756,0,0,0,0,0,0,0,0,0,0,0,0,0,0.4585,0.4585,0.4624,0.4624,0.4625,0.4665,0.4665,0.4666,0.4713,0.4714,0.4715,0.4716,0.4755,0.4755,0.4756,0,0,0,0,0,0,0,0,0,0,0,0,0,0.4611,0.4586,0.4624,0.4653,0.4656,0.4665,0.4666,0.4666,0.4713,0.4714,0.4715,0.4716,0.4755,0.4755,0.4756,0.4737,0,0,0.4757,0.4758,0,0,0,0,0,0,0,0,0.461,0.4613,0.4648,0.4651,0.4655,0.4685,0.4666,0.469,0.4713,0.4692,0.4716,0.4717,0.4731,0.4733,0.4738,0.4739,0.4741,0.4757,0.4758,0.4758,0.4758,0,0,0,0,0,0,0,0.4608,0.4611,0.464,0.4649,0.4653,0.4664,0.4669,0.4671,0.4704,0.4693,0.4697,0.4701,0.4733,0.4738,0.474,0.4741,0.4757,0.4758,0.4758,0.4758,0.4731,0.473,0,0,0,0,0,0,0.4602,0.4609,0.4639,0.4641,0.4635,0.4664,0.467,0.4674,0.4705,0.471,0.47,0.4703,0.4736,0.4739,0.4741,0.4723,0.4758,0.4759,0.4759,0.4732,0.4731,0.473,0,0,0,0,0,0,0.4601,0.4604,0.4637,0.4626,0.4632,0.4664,0.4668,0.4675,0.468,0.471,0.4716,0.47,0.4737,0.4741,0.4739,0.4725,0.4759,0.4759,0.4734,0.4732,0.473,0.4686,0,0,0,0,0,0,0.46,0.4603,0.4597,0.4626,0.4632,0.4634,0.4668,0.4675,0.4681,0.4685,0.4711,0.4716,0.4738,0.4738,0.4739,0.4727,0.476,0.4735,0.4733,0.4731,0.4689,0.4683,0.4678,0,0,0,0,0,0.4598,0.4582,0.4596,0.46,0.4625,0.4633,0.4636,0.4663,0.468,0.4674,0.4693,0.4715,0.4726,0.4737,0.4739,0.4726,0.4736,0.4733,0.4731,0.4691,0.4684,0.4678,0,0,0,0,0,0,0.4549,0.4586,0.4603,0.4595,0.4611,0.4641,0.4634,0.4655,0.4665,0.4669,0.4701,0.4706,0.4701,0.4713,0.4724,0.4711,0.4734,0.4732,0.4703,0.4697,0.4692,0.4689,0.476,0,0,0,0,0,0.4537,0.4542,0.4574,0.4564,0.4571,0.4601,0.4606,0.4626,0.4642,0.4649,0.4668,0.4683,0.4691,0.4694,0.4702,0.4691,0.4698,0.4683,0.4678,0.4674,0.4671,0.4668,0.4662,0.4722,0.4722,0.4722,0,0,0.4513,0.4534,0.4534,0.4555,0.4569,0.4573,0.4606,0.4608,0.4611,0.4649,0.4649,0.4664,0.4683,0.4676,0.4675,0.4687,0.4657,0.4671,0.4667,0.4667,0.4665,0.4659,0.4654,0.472,0.4721,0.4721,0,0,0.4471,0.4487,0.4482,0.4496,0.4518,0.4538,0.4537,0.4565,0.4576,0.4577,0.4606,0.461,0.4621,0.4634,0.4642,0.4607,0.4629,0.4609,0.4581,0.4577,0.4573,0.4569,0.4557,0.4553,0.4607,0.4607,0.4607,0,0.4438,0.4445,0.4476,0.4477,0.4485,0.4521,0.4516,0.4528,0.4551,0.4556,0.457,0.4586,0.4601,0.46,0.4591,0.4596,0.4596,0.4606,0.4571,0.4567,0.4564,0.4554,0.4549,0.4604,0.4605,0.4605,0.4605,0,0.4404,0.4409,0.4402,0.4425,0.4433,0.443,0.4461,0.4465,0.4484,0.4503,0.4504,0.4524,0.4538,0.4539,0.4557,0.454,0.4547,0.4565,0.4589,0.4555,0.4546,0.4542,0.4601,0.4602,0.4602,0.4603,0,0,0.4331,0.4373,0.437,0.4381,0.4409,0.4413,0.4413,0.4428,0.4431,0.4446,0.4447,0.4457,0.4475,0.4484,0.4504,0.4501,0.4474,0.452,0.4521,0.4512,0.4458,0.4444,0.4439,0.4488,0.4487,0.4487,0.4456,0,0.4294,0.4297,0.4326,0.4321,0.4326,0.4361,0.4361,0.4378,0.4396,0.4403,0.4423,0.443,0.4453,0.4459,0.4457,0.4477,0.4463,0.448,0.4489,0.4489,0.4484,0.4434,0.4419,0.4389,0.4453,0.4452,0.4452,0,0.4252,0.4266,0.4262,0.4292,0.4295,0.4295,0.4312,0.4318,0.4338,0.4352,0.4363,0.4387,0.4389,0.4411,0.4415,0.4426,0.4432,0.4442,0.4442,0.4444,0.4469,0.4435,0.438,0.4375,0.4446,0.4446,0.4447,0,0.42,0.4218,0.4219,0.4227,0.4262,0.4261,0.4275,0.4297,0.4305,0.4319,0.4325,0.4338,0.4346,0.4356,0.4383,0.4397,0.4384,0.4409,0.4396,0.4395,0.4391,0.4391,0.4337,0.4394,0.4394,0.4394,0.4394,0,0.4156,0.4153,0.4196,0.4196,0.4194,0.4226,0.4223,0.424,0.4259,0.4264,0.4294,0.4298,0.4333,0.434,0.4361,0.4362,0.4364,0.4376,0.4381,0.4373,0.4372,0.4377,0.438,0.4393,0.4393,0.4393,0.4394,0,0.4098,0.4127,0.413,0.4163,0.4172,0.4168,0.4196,0.4198,0.4219,0.4224,0.4227,0.4259,0.427,0.4298,0.4314,0.4329,0.4324,0.4334,0.4317,0.4321,0.4307,0.4308,0.4254,0.4249,0.4309,0.4308,0.4308,0,0.4068,0.4067,0.41,0.4106,0.412,0.4128,0.4137,0.4169,0.4177,0.4201,0.42,0.4213,0.4226,0.4241,0.4265,0.4279,0.429,0.4271,0.4292,0.4285,0.4291,0.4291,0.4291,0.4266,0.4265,0.4264,0.4264,0,0.4013,0.4028,0.404,0.4057,0.4067,0.4082,0.4098,0.4101,0.4137,0.4145,0.4156,0.4166,0.4185,0.4198,0.4216,0.423,0.4253,0.4257,0.4255,0.4246,0.4237,0.4243,0.4305,0.4258,0.4258,0.4259,0.4259,0.4259,0.3969,0.397,0.3994,0.4007,0.4023,0.4038,0.4042,0.4064,0.4075,0.4093,0.4112,0.4122,0.4144,0.4171,0.4184,0.4192,0.4204,0.4201,0.42,0.4199,0.4196,0.4236,0.4196,0.4196,0.4196,0.4196,0.4196,0,0.3916,0.3934,0.3945,0.3969,0.3978,0.4001,0.402,0.4027,0.4036,0.4055,0.4068,0.4082,0.4095,0.4122,0.4137,0.4139,0.415,0.4142,0.4142,0.4146,0.4184,0.4184,0.4133,0.4133,0.4133,0.4133,0.4133,0.4133,0.389,0.3893,0.3911,0.3923,0.3941,0.3952,0.3962,0.3976,0.3992,0.4007,0.4019,0.4036,0.4059,0.4077,0.409,0.4098,0.4102,0.4091,0.4102,0.4137,0.4143,0.4148,0.4149,0.4091,0.4091,0.4063,0.4063,0.4063]}]]